Date String (YYYY-MM-DD hh:mm:ss) UTC,Instrument flags,absolute air pressure of the measurement (hPa),sample flow rate (lpm),inlet stack bypass flow (lpm),air temperature of the measurement (°C),ambient temperature measured by the external sensor (°C),aerosol sample conditioner tube jacket temperature (°C),OPC LED temperature (°C),internal box temperature (°C),relative humidity of the measurement (%),span deviation,mass concentration of particles derived from Lorenz-Mie calculation of OPC scattering (μg/m³),mass concentration of particles derived from Lorenz-Mie calculation of OPC scattering (μg/m³),mass concentration of particles derived from Lorenz-Mie calculation of OPC scattering (μg/m³)
DateTimeUTC,F1_M11,P_M11,Q1_M11,Q2_M11,T1_M11,T2_M11,T3_M11,T4_M11,T5_M11,U1_M11,ZSPAN_M11,X0_M11,X2_M11,X1_M11
2023-07-13 07:00:00,SystemResetWarning,0831.6,5.01,000.00,029.3,028.2,000.0,037.7,031.0,24.5,0000.0,0007.37,0003.39,0002.88
2023-07-13 07:01:00,SystemResetWarning,0831.5,4.98,000.00,029.3,027.2,000.0,037.6,030.9,24.1,0000.0,0007.21,0003.41,0002.91
2023-07-13 07:02:00,SystemResetWarning,0831.6,5.01,000.00,029.3,025.7,000.0,037.5,030.7,23.4,0000.0,0007.30,0003.44,0002.94
2023-07-13 07:03:00,SystemResetWarning,0831.5,5.01,000.00,029.2,025.6,000.0,037.5,030.6,23.4,0000.0,0007.34,0003.47,0002.96
2023-07-13 07:04:00,SystemResetWarning,0831.5,5.00,000.00,029.1,025.9,000.0,037.5,030.5,23.4,0000.0,0007.27,0003.45,0002.96
2023-07-13 07:05:00,SystemResetWarning,0831.6,5.00,000.00,029.1,026.2,000.0,037.5,030.5,23.4,0000.0,0006.47,0003.43,0002.96
2023-07-13 07:06:00,SystemResetWarning,0831.6,5.00,000.00,029.1,026.6,000.0,037.6,030.6,23.0,0000.0,0006.84,0003.45,0002.97
2023-07-13 07:07:00,SystemResetWarning,0831.6,5.00,000.00,029.1,026.9,000.0,037.6,030.7,23.2,0000.0,0007.06,0003.43,0002.96
2023-07-13 07:08:00,SystemResetWarning,0831.6,5.00,000.00,029.2,027.2,000.0,037.6,030.8,23.2,0000.0,0007.46,0003.41,0002.93
2023-07-13 07:09:00,SystemResetWarning,0831.5,5.00,000.00,029.2,027.5,000.0,037.6,030.8,22.7,0000.0,0007.66,0003.42,0002.91
2023-07-13 07:10:00,SystemResetWarning,0831.6,5.00,000.00,029.2,027.7,000.0,037.6,030.9,22.6,0000.0,0007.68,0003.42,0002.91
2023-07-13 07:11:00,SystemResetWarning,0831.6,5.00,000.00,029.3,027.8,000.0,037.7,030.9,22.7,0000.0,0007.75,0003.43,0002.88
2023-07-13 07:12:00,SystemResetWarning,0831.6,5.00,000.00,029.3,028.0,000.0,037.7,031.0,22.8,0000.0,0007.91,0003.46,0002.89
2023-07-13 07:13:00,SystemResetWarning,0831.6,4.99,000.00,029.3,027.5,000.0,037.7,030.9,23.7,0000.0,0007.95,0003.46,0002.87
2023-07-13 07:14:00,SystemResetWarning,0831.6,5.00,000.00,029.3,025.9,000.0,037.5,030.7,24.2,0000.0,0007.91,0003.44,0002.86
2023-07-13 07:15:00,SystemResetWarning,0831.6,5.01,000.00,029.2,025.5,000.0,037.5,030.5,24.7,0000.0,0008.02,0003.45,0002.85
2023-07-13 07:16:00,SystemResetWarning,0831.6,5.01,000.00,029.1,025.7,000.0,037.5,030.4,23.9,0000.0,0008.07,0003.46,0002.85
2023-07-13 07:17:00,SystemResetWarning,0831.6,4.99,000.00,029.1,026.1,000.0,037.5,030.4,23.5,0000.0,0007.78,0003.43,0002.83
2023-07-13 07:18:00,SystemResetWarning,0831.6,4.99,000.00,029.1,026.4,000.0,037.5,030.5,23.5,0000.0,0007.68,0003.41,0002.82
2023-07-13 07:19:00,SystemResetWarning,0831.5,5.00,000.00,029.1,026.8,000.0,037.6,030.6,23.7,0000.0,0007.05,0003.41,0002.83
2023-07-13 07:20:00,SystemResetWarning,0831.5,5.01,000.00,029.1,027.1,000.0,037.6,030.7,24.6,0000.0,0006.43,0003.41,0002.82
2023-07-13 07:21:00,SystemResetWarning,0831.6,5.01,000.00,029.1,027.4,000.0,037.6,030.7,24.7,0000.0,0006.52,0003.42,0002.81
2023-07-13 07:22:00,SystemResetWarning,0831.5,5.00,000.00,029.2,027.6,000.0,037.6,030.8,24.8,0000.0,0007.05,0003.39,0002.82
2023-07-13 07:23:00,SystemResetWarning,0831.4,5.00,000.00,029.2,027.8,000.0,037.6,030.9,25.2,0000.0,0007.07,0003.37,0002.79
2023-07-13 07:24:00,SystemResetWarning,0831.4,5.00,000.00,029.2,027.9,000.0,037.6,030.9,25.5,0000.0,0007.22,0003.39,0002.79
2023-07-13 07:25:00,SystemResetWarning,0831.5,5.00,000.00,029.3,028.1,000.0,037.7,031.0,26.1,0000.0,0007.35,0003.41,0002.79
2023-07-13 07:26:00,SystemResetWarning,0831.5,4.98,000.00,029.3,027.2,000.0,037.6,030.9,26.5,0000.0,0007.91,0003.43,0002.81
2023-07-13 07:27:00,SystemResetWarning,0831.4,5.01,000.00,029.3,025.6,000.0,037.5,030.7,26.7,0000.0,0007.66,0003.39,0002.80
2023-07-13 07:28:00,SystemResetWarning,0831.4,5.02,000.00,029.2,025.3,000.0,037.4,030.5,26.8,0000.0,0007.58,0003.40,0002.81
2023-07-13 07:29:00,SystemResetWarning,0831.5,5.00,000.00,029.1,025.6,000.0,037.5,030.4,26.9,0000.0,0007.41,0003.40,0002.82
2023-07-13 07:30:00,SystemResetWarning,0831.5,5.00,000.00,029.0,026.0,000.0,037.5,030.4,27.5,0000.0,0007.46,0003.42,0002.83
2023-07-13 07:31:00,SystemResetWarning,0831.5,5.00,000.00,029.0,026.4,000.0,037.5,030.5,26.2,0000.0,0007.52,0003.43,0002.84
2023-07-13 07:32:00,SystemResetWarning,0831.5,4.99,000.00,029.1,026.8,000.0,037.6,030.6,27.1,0000.0,0007.50,0003.41,0002.84
2023-07-13 07:33:00,SystemResetWarning,0831.4,5.00,000.00,029.1,027.1,000.0,037.6,030.7,27.0,0000.0,0007.18,0003.42,0002.83
2023-07-13 07:34:00,SystemResetWarning,0831.4,5.00,000.00,029.1,027.3,000.0,037.6,030.7,26.1,0000.0,0006.90,0003.45,0002.85
2023-07-13 07:35:00,SystemResetWarning,0831.5,5.00,000.00,029.1,027.6,000.0,037.6,030.8,25.7,0000.0,0007.26,0003.46,0002.87
2023-07-13 07:36:00,SystemResetWarning,0831.4,5.01,000.00,029.2,027.8,000.0,037.6,030.9,25.6,0000.0,0007.21,0003.44,0002.88
2023-07-13 07:37:00,SystemResetWarning,0831.4,5.00,000.00,029.2,027.9,000.0,037.6,030.9,25.5,0000.0,0006.84,0003.46,0002.90
2023-07-13 07:38:00,SystemResetWarning,0831.4,4.98,000.00,029.3,028.1,000.0,037.7,031.0,25.3,0000.0,0007.05,0003.50,0002.93
2023-07-13 07:39:00,SystemResetWarning,0831.5,5.00,000.00,029.3,028.2,000.0,037.7,031.0,25.2,0000.0,0006.88,0003.48,0002.94
2023-07-13 07:40:00,SystemResetWarning,0831.5,5.00,000.00,029.3,027.0,000.0,037.6,030.9,25.2,0000.0,0007.08,0003.49,0002.96
2023-07-13 07:41:00,SystemResetWarning,0831.4,5.00,000.00,029.3,025.5,000.0,037.5,030.7,25.2,0000.0,0007.19,0003.48,0002.97
2023-07-13 07:42:00,SystemResetWarning,0831.5,5.01,000.00,029.2,025.4,000.0,037.4,030.5,25.3,0000.0,0007.20,0003.49,0002.99
2023-07-13 07:43:00,SystemResetWarning,0831.5,5.01,000.00,029.1,025.7,000.0,037.5,030.4,25.5,0000.0,0007.23,0003.52,0003.01
2023-07-13 07:44:00,SystemResetWarning,0831.5,5.00,000.00,029.1,026.1,000.0,037.5,030.5,25.3,0000.0,0007.43,0003.54,0003.03
2023-07-13 07:45:00,SystemResetWarning,0831.5,5.00,000.00,029.1,026.5,000.0,037.5,030.6,25.4,0000.0,0007.61,0003.53,0003.05
2023-07-13 07:46:00,SystemResetWarning,0831.5,5.00,000.00,029.1,026.9,000.0,037.6,030.7,25.6,0000.0,0007.88,0003.54,0003.05
2023-07-13 07:47:00,SystemResetWarning,0831.5,5.00,000.00,029.1,027.2,000.0,037.6,030.7,27.4,0000.0,0007.98,0003.55,0003.06
2023-07-13 07:48:00,SystemResetWarning,0831.5,5.01,000.00,029.1,027.4,000.0,037.6,030.8,25.6,0000.0,0007.93,0003.55,0003.06
2023-07-13 07:49:00,SystemResetWarning,0831.5,5.01,000.00,029.2,027.6,000.0,037.6,030.8,25.3,0000.0,0008.45,0003.55,0003.07
2023-07-13 07:50:00,SystemResetWarning,0831.5,5.00,000.00,029.2,027.8,000.0,037.6,030.9,25.2,0000.0,0008.52,0003.55,0003.06
2023-07-13 07:51:00,SystemResetWarning,0831.4,4.99,000.00,029.2,028.0,000.0,037.7,030.9,24.9,0000.0,0009.40,0003.57,0003.07
2023-07-13 07:52:00,SystemResetWarning,0831.4,5.02,000.00,029.3,028.1,000.0,037.7,031.0,25.0,0000.0,0009.72,0003.59,0003.06
2023-07-13 07:53:00,SystemResetWarning,0831.4,5.01,000.00,029.3,028.2,000.0,037.7,031.0,25.4,0000.0,0009.90,0003.59,0003.05
2023-07-13 07:54:00,SystemResetWarning,0831.4,4.98,000.00,029.4,027.7,000.0,037.7,031.0,25.4,0000.0,0009.95,0003.61,0003.04
2023-07-13 07:55:00,SystemResetWarning,0831.3,5.01,000.00,029.3,025.9,000.0,037.6,030.8,25.3,0000.0,0009.81,0003.60,0003.04
2023-07-13 07:56:00,SystemResetWarning,0831.3,5.01,000.00,029.2,025.4,000.0,037.5,030.6,25.1,0000.0,0009.51,0003.58,0003.04
2023-07-13 07:57:00,SystemResetWarning,0831.2,5.01,000.00,029.1,025.6,000.0,037.5,030.4,25.2,0000.0,0009.10,0003.58,0003.05
2023-07-13 07:58:00,SystemResetWarning,0831.2,5.00,000.00,029.1,026.0,000.0,037.5,030.4,25.2,0000.0,0008.95,0003.58,0003.05
2023-07-13 07:59:00,SystemResetWarning,0831.1,5.01,000.00,029.1,026.4,000.0,037.6,030.5,25.2,0000.0,0008.91,0003.62,0003.05
